DW8622 Weather Reports


Display with metric or nautical units.
time (UTC)temp
F
wind
direction
speed
MPH
gust
MPH
rain 1hr
in
rain 24hr
in
rain mn
in
humidity
%
barometer
mb
20260510100005 64 358 6.0 13.0 0.00 0.00 0.00 58 1014.7
20260510095505 64 9 6.0 13.0 0.00 0.00 0.00 57 1014.8
20260510095005 64 10 6.0 15.0 0.00 0.00 0.00 58 1014.8
20260510094505 64 10 7.0 15.0 0.00 0.00 0.00 58 1014.8
20260510093505 64 355 6.0 12.0 0.00 0.00 0.00 56 1014.9
20260510092505 64 12 6.0 12.0 0.00 0.00 0.00 59 1015.0
20260510092005 64 1 6.0 12.0 0.00 0.00 0.00 59 1014.9
20260510091506 63 344 6.0 12.0 0.00 0.00 0.00 57 1015.0
20260510091005 63 347 5.0 12.0 0.00 0.00 0.00 56 1015.1
20260510090505 63 354 4.0 11.0 0.00 0.00 0.00 57 1015.1
20260510090006 63 349 4.0 11.0 0.00 0.00 0.00 56 1015.0
20260510085506 63 352 5.0 14.0 0.00 0.00 0.00 59 1015.0
20260510085006 62 1 6.0 14.0 0.00 0.00 0.00 61 1015.1
20260510084505 62 5 6.0 13.0 0.00 0.00 0.00 62 1015.0
20260510084006 63 2 6.0 13.0 0.00 0.00 0.00 61 1015.1
20260510083505 62 1 6.0 12.0 0.00 0.00 0.00 64 1015.2
20260510083005 61 1 6.0 12.0 0.00 0.00 0.00 64 1015.3
20260510082505 62 6 5.0 12.0 0.00 0.00 0.00 67 1015.4
20260510082005 62 3 5.0 12.0 0.00 0.00 0.00 69 1015.3
20260510081506 61 354 4.0 12.0 0.00 0.00 0.00 68 1015.4
20260510081005 60 351 5.0 13.0 0.00 0.00 0.00 69 1015.4
20260510080504 60 346 5.0 13.0 0.00 0.00 0.00 68 1015.3
20260510080005 60 343 4.0 11.0 0.00 0.00 0.00 69 1015.4
20260510075505 60 351 2.0 10.0 0.00 0.00 0.00 69 1015.4
20260510075005 60 357 3.0 14.0 0.00 0.00 0.00 68 1015.3
20260510074005 60 348 2.0 10.0 0.00 0.00 0.00 69 1015.4
20260510073504 60 356 2.0 10.0 0.00 0.00 0.00 72 1015.4
20260510073005 59 352 2.0 9.0 0.00 0.00 0.00 71 1015.5
20260510072505 59 342 2.0 9.0 0.00 0.00 0.00 75 1015.6
20260510072005 58 343 2.0 11.0 0.00 0.00 0.00 75 1015.6
20260510071505 58 350 2.0 11.0 0.00 0.00 0.00 76 1015.5
20260510071005 57 356 2.0 9.0 0.00 0.00 0.00 78 1015.6
20260510070505 57 351 2.0 9.0 0.00 0.00 0.00 80 1015.6
20260510070005 56 347 2.0 7.0 0.00 0.00 0.00 79 1015.5
20260510065505 56 349 2.0 7.0 0.00 0.00 0.00 80 1015.5
20260510064006 54 326 2.0 8.0 0.00 0.00 0.00 82 1015.5
20260510063505 54 328 2.0 8.0 0.00 0.00 0.00 83 1015.5
20260510063005 54 328 2.0 5.0 0.00 0.00 0.00 84 1015.5
20260510062506 53 327 2.0 10.0 0.00 0.00 0.00 84 1015.5
20260510062005 53 332 2.0 10.0 0.00 0.00 0.00 84 1015.6
20260510061005 52 325 2.0 10.0 0.00 0.00 0.00 86 1015.7
20260510055506 52 332 2.0 5.0 0.00 0.00 0.00 87 1015.5
20260510054505 51 332 3.0 9.0 0.00 0.00 0.00 88 1015.5
20260510054005 51 328 3.0 9.0 0.00 0.00 0.00 88 1015.6
20260510053505 51 325 3.0 5.0 0.00 0.00 0.00 89 1015.6
20260510053005 51 327 3.0 8.0 0.00 0.00 0.00 89 1015.7
20260510052506 51 329 2.0 8.0 0.00 0.00 0.00 89 1015.7
20260510052005 50 329 2.0 4.0 0.00 0.00 0.00 90 1015.5
20260510051005 50 331 2.0 6.0 0.00 0.00 0.00 91 1015.6
20260510050505 50 333 2.0 6.0 0.00 0.00 0.00 91 1015.5
20260510050005 49 329 2.0 7.0 0.00 0.00 0.00 91 1015.6
20260510045506 49 329 2.0 7.0 0.00 0.00 0.00 92 1015.6
20260510045005 49 329 3.0 5.0 0.00 0.00 0.00 92 1015.5
20260510044005 49 322 2.0 5.0 0.00 0.00 0.00 91 1015.6
20260510043505 49 323 2.0 6.0 0.00 0.00 0.00 91 1015.6
20260510042506 49 323 2.0 5.0 0.00 0.00 0.00 91 1015.5
20260510042005 49 326 2.0 5.0 0.00 0.00 0.00 91 1015.6
20260510041505 49 324 2.0 5.0 0.00 0.00 0.00 91 1015.5
20260510040505 49 326 2.0 5.0 0.00 0.00 0.00 91 1015.4
20260510040005 49 331 2.0 9.0 0.00 0.00 0.00 91 1015.4
20260510035005 49 329 3.0 7.0 0.00 0.00 0.00 90 1015.3
20260510034005 49 322 2.0 5.0 0.00 0.00 0.00 90 1015.3
20260510033505 49 323 2.0 5.0 0.00 0.00 0.00 90 1015.3
20260510033005 50 326 2.0 9.0 0.00 0.00 0.00 89 1015.4
20260510032505 50 329 3.0 9.0 0.00 0.00 0.00 90 1015.4
20260510032005 50 328 3.0 8.0 0.00 0.00 0.00 90 1015.4
20260510031505 50 327 4.0 8.0 0.00 0.00 0.00 90 1015.4
20260510031006 50 329 3.0 8.0 0.00 0.00 0.00 90 1015.5
20260510030505 50 332 3.0 7.0 0.00 0.00 0.00 90 1015.4
20260510025505 50 332 2.0 8.0 0.00 0.00 0.00 90 1015.6
20260510024505 50 329 2.0 5.0 0.00 0.00 0.00 90 1015.7
20260510024005 49 325 2.0 5.0 0.00 0.00 0.00 90 1015.7
20260510023005 50 319 3.0 6.0 0.00 0.00 0.00 90 1015.8
20260510022505 50 320 2.0 5.0 0.00 0.00 0.00 90 1015.7
20260510022005 50 322 2.0 6.0 0.00 0.00 0.00 90 1015.8
20260510021005 50 328 2.0 5.0 0.00 0.00 0.00 90 1015.9
20260510020505 50 328 2.0 5.0 0.00 0.00 0.00 90 1015.9
20260510020005 50 327 2.0 6.0 0.00 0.00 0.00 90 1015.9
20260510015005 50 333 2.0 5.0 0.00 0.00 0.00 90 1015.8
20260510014505 50 327 2.0 7.0 0.00 0.00 0.00 90 1015.9
20260510014005 50 324 2.0 7.0 0.00 0.00 0.00 89 1015.8
20260510013506 50 327 2.0 5.0 0.00 0.00 0.00 89 1015.8
20260510013005 50 320 0.0 3.0 0.00 0.00 0.00 89 1015.8
20260510011505 51 0 0.0 0.0 0.00 0.00 0.00 89 1015.8
20260510011006 51 0 0.0 0.0 0.00 0.00 0.00 89 1015.8
20260510010005 51 0 0.0 0.0 0.00 0.00 0.00 88 1015.9
20260510005505 51 0 0.0 0.0 0.00 0.00 0.00 88 1016.0
20260510005005 51 326 0.0 4.0 0.00 0.00 0.00 88 1016.0
20260510004505 51 326 1.0 4.0 0.00 0.00 0.00 88 1016.0
20260510004005 52 328 0.0 4.0 0.00 0.00 0.00 87 1016.1
20260510003505 52 335 1.0 4.0 0.00 0.00 0.00 87 1016.1
20260510003005 52 333 2.0 5.0 0.00 0.00 0.00 87 1016.2
20260510002005 52 333 3.0 7.0 0.00 0.00 0.00 87 1016.2
20260510001505 52 332 2.0 5.0 0.00 0.00 0.00 87 1016.2
20260510001005 52 336 2.0 5.0 0.00 0.00 0.00 87 1016.3
20260510000006 52 335 2.0 9.0 0.00 0.00 0.00 87 1016.3
20260509235505 52 335 2.0 8.0 0.00 0.00 0.00 87 1016.2
20260509235005 52 330 2.0 8.0 0.00 0.00 0.00 87 1016.2
20260509234005 53 327 2.0 4.0 0.00 0.00 0.00 86 1016.3
20260509233506 53 333 1.0 3.0 0.00 0.00 0.00 86 1016.3
20260509233005 53 350 1.0 4.0 0.00 0.00 0.00 85 1016.3
20260509232506 53 347 1.0 5.0 0.00 0.00 0.00 85 1016.2
20260509231505 53 340 2.0 4.0 0.00 0.00 0.00 85 1016.2
20260509231005 53 340 2.0 5.0 0.00 0.00 0.00 85 1016.3
20260509230505 53 332 2.0 6.0 0.00 0.00 0.00 85 1016.4
20260509225505 53 337 2.0 7.0 0.00 0.00 0.00 85 1016.4
20260509225005 53 340 2.0 6.0 0.00 0.00 0.00 85 1016.4
20260509224505 53 333 3.0 6.0 0.00 0.00 0.00 84 1016.4
20260509224005 53 331 2.0 6.0 0.00 0.00 0.00 84 1016.4
20260509223505 53 334 2.0 6.0 0.00 0.00 0.00 84 1016.4
20260509223005 53 335 2.0 5.0 0.00 0.00 0.00 83 1016.4
20260509222506 53 332 2.0 5.0 0.00 0.00 0.00 83 1016.5
20260509222005 53 335 2.0 5.0 0.00 0.00 0.00 83 1016.5
20260509221505 54 336 2.0 5.0 0.00 0.00 0.00 82 1016.4
20260509220507 54 347 2.0 5.0 0.00 0.00 0.00 81 1016.4
20260509220005 54 342 2.0 4.0 0.00 0.00 0.00 81 1016.4
20260509215505 54 343 2.0 4.0 0.00 0.00 0.00 81 1016.3
20260509214005 54 351 2.0 3.0 0.00 0.00 0.00 80 1016.4
20260509213505 54 352 2.0 4.0 0.00 0.00 0.00 79 1016.4
20260509213006 54 358 1.0 5.0 0.00 0.00 0.00 79 1016.5
20260509212506 54 2 1.0 5.0 0.00 0.00 0.00 79 1016.5
20260509211505 55 10 0.0 3.0 0.00 0.00 0.00 78 1016.6
20260509211006 55 15 1.0 6.0 0.00 0.00 0.00 77 1016.6
20260509210005 55 16 1.0 4.0 0.00 0.00 0.00 76 1016.6
20260509205505 55 15 1.0 5.0 0.00 0.00 0.00 76 1016.5
20260509205005 55 16 1.0 5.0 0.00 0.00 0.00 76 1016.5
20260509204006 56 10 2.0 8.0 0.00 0.00 0.00 75 1016.5
20260509203505 56 10 2.0 8.0 0.00 0.00 0.00 75 1016.4
20260509203005 56 3 2.0 5.0 0.00 0.00 0.00 75 1016.3
20260509202505 56 358 2.0 5.0 0.00 0.00 0.00 75 1016.3
20260509202005 56 7 1.0 5.0 0.00 0.00 0.00 74 1016.3
20260509201505 56 6 0.0 3.0 0.00 0.00 0.00 74 1016.4
20260509201006 56 6 1.0 3.0 0.00 0.00 0.00 73 1016.5
20260509200505 56 5 0.0 3.0 0.00 0.00 0.00 72 1016.5
20260509195505 57 348 0.0 4.0 0.00 0.00 0.00 71 1016.5
20260509195005 57 6 0.0 2.0 0.00 0.00 0.00 72 1016.5
20260509194505 57 18 0.0 4.0 0.00 0.00 0.00 72 1016.4
20260509194005 57 23 1.0 4.0 0.00 0.00 0.00 71 1016.4
20260509193505 58 26 1.0 4.0 0.00 0.00 0.00 70 1016.4
20260509192507 58 14 0.0 2.0 0.00 0.00 0.00 69 1016.4
20260509192006 58 8 1.0 5.0 0.00 0.00 0.00 69 1016.4
20260509191505 59 11 1.0 5.0 0.00 0.00 0.00 68 1016.3
20260509190505 59 16 2.0 4.0 0.00 0.00 0.00 67 1016.2
20260509185506 60 17 1.0 3.0 0.00 0.00 0.00 66 1016.2
20260509185020 60 17 2.0 4.0 0.00 0.00 0.00 66 1016.2
20260509184506 60 15 1.0 4.0 0.00 0.00 0.00 66 1016.2
20260509183505 61 359 1.0 5.0 0.00 0.00 0.00 64 1016.1
20260509183005 61 356 1.0 5.0 0.00 0.00 0.00 64 1016.0
20260509182505 62 15 1.0 5.0 0.00 0.00 0.00 63 1016.0
20260509182006 62 16 1.0 5.0 0.00 0.00 0.00 63 1016.0
20260509181505 62 9 1.0 5.0 0.00 0.00 0.00 61 1015.9
20260509181005 62 11 1.0 5.0 0.00 0.00 0.00 60 1015.9
20260509180506 62 17 1.0 5.0 0.00 0.00 0.00 61 1015.9
20260509180005 63 15 2.0 7.0 0.00 0.00 0.00 59 1015.9
20260509175005 63 14 3.0 9.0 0.00 0.00 0.00 58 1015.9
20260509174505 63 16 3.0 9.0 0.00 0.00 0.00 58 1015.9
20260509174005 64 359 2.0 6.0 0.00 0.00 0.00 57 1016.0
20260509173505 64 344 1.0 7.0 0.00 0.00 0.00 55 1016.0
20260509173006 64 350 2.0 7.0 0.00 0.00 0.00 54 1016.1
20260509172505 64 343 2.0 7.0 0.00 0.00 0.00 54 1016.1
20260509172005 65 339 1.0 5.0 0.00 0.00 0.00 54 1016.1
20260509171505 65 2 1.0 5.0 0.00 0.00 0.00 54 1016.0
20260509171005 65 13 2.0 9.0 0.00 0.00 0.00 56 1016.1
20260509170505 65 4 2.0 9.0 0.00 0.00 0.00 54 1016.0
20260509170005 65 346 2.0 7.0 0.00 0.00 0.00 56 1016.0
20260509165505 65 356 2.0 6.0 0.00 0.00 0.00 54 1016.1
20260509165006 65 11 3.0 9.0 0.00 0.00 0.00 54 1016.1
20260509164506 65 12 3.0 9.0 0.00 0.00 0.00 53 1016.1
20260509164005 65 7 3.0 9.0 0.00 0.00 0.00 55 1016.1
20260509163505 65 357 2.0 7.0 0.00 0.00 0.00 52 1016.1
20260509163005 65 14 2.0 8.0 0.00 0.00 0.00 51 1016.1
20260509162505 65 6 3.0 8.0 0.00 0.00 0.00 51 1016.1
20260509162006 65 344 2.0 7.0 0.00 0.00 0.00 52 1016.1
20260509161507 65 356 2.0 6.0 0.00 0.00 0.00 51 1016.1
20260509161005 65 23 3.0 9.0 0.00 0.00 0.00 52 1016.1
20260509160505 65 22 4.0 9.0 0.00 0.00 0.00 51 1016.1
20260509160005 66 15 2.0 7.0 0.00 0.00 0.00 52 1016.0
20260509155506 66 17 2.0 9.0 0.00 0.00 0.00 51 1016.0
20260509155005 67 16 4.0 9.0 0.00 0.00 0.00 48 1016.0
20260509154005 68 9 3.0 8.0 0.00 0.00 0.00 49 1015.9
20260509153506 68 4 2.0 8.0 0.00 0.00 0.00 48 1015.9
20260509153007 68 3 3.0 9.0 0.00 0.00 0.00 48 1015.9
20260509152505 69 10 4.0 9.0 0.00 0.00 0.00 50 1016.0
20260509152006 68 7 3.0 9.0 0.00 0.00 0.00 50 1016.0
20260509151506 67 335 2.0 7.0 0.00 0.00 0.00 52 1016.1
20260509151005 67 323 1.0 6.0 0.00 0.00 0.00 49 1016.2
20260509150505 67 20 0.0 3.0 0.00 0.00 0.00 47 1016.2
20260509150005 68 26 1.0 7.0 0.00 0.00 0.00 46 1016.2
20260509145505 68 7 2.0 7.0 0.00 0.00 0.00 48 1016.2
20260509145006 68 322 1.0 4.0 0.00 0.00 0.00 47 1016.2
20260509144506 67 319 1.0 4.0 0.00 0.00 0.00 50 1016.2
20260509144006 66 358 1.0 5.0 0.00 0.00 0.00 50 1016.2
20260509143505 66 19 1.0 5.0 0.00 0.00 0.00 51 1016.2
20260509142506 67 331 1.0 5.0 0.00 0.00 0.00 48 1016.3
20260509141505 69 37 4.0 8.0 0.00 0.00 0.00 49 1016.5
20260509140506 69 25 3.0 9.0 0.00 0.00 0.00 49 1016.5
20260509140006 68 11 1.0 6.0 0.00 0.00 0.00 51 1016.5
20260509134006 69 17 2.0 6.0 0.00 0.00 0.00 46 1016.8
20260509133506 69 20 1.0 6.0 0.00 0.00 0.00 51 1016.9
20260509133005 68 32 1.0 5.0 0.00 0.00 0.00 47 1017.0
20260509132506 69 32 1.0 5.0 0.00 0.00 0.00 49 1017.1
20260509132005 68 25 0.0 5.0 0.00 0.00 0.00 51 1017.1
20260509131505 66 25 1.0 4.0 0.00 0.00 0.00 53 1017.2
20260509131006 66 26 1.0 4.0 0.00 0.00 0.00 53 1017.2
20260509130505 66 11 1.0 3.0 0.00 0.00 0.00 51 1017.3
20260509130005 66 12 1.0 4.0 0.00 0.00 0.00 50 1017.3
20260509125005 67 18 2.0 7.0 0.00 0.00 0.00 52 1017.4
20260509124505 68 31 1.0 7.0 0.00 0.00 0.00 52 1017.5
20260509124005 70 53 1.0 4.0 0.00 0.00 0.00 44 1017.5
20260509123505 69 46 1.0 4.0 0.00 0.00 0.00 48 1017.4
20260509123005 69 42 0.0 4.0 0.00 0.00 0.00 50 1017.4
20260509122006 69 45 1.0 4.0 0.00 0.00 0.00 54 1017.5
20260509121005 67 28 1.0 5.0 0.00 0.00 0.00 56 1017.5
20260509120506 65 19 1.0 4.0 0.00 0.00 0.00 56 1017.6
20260509120006 65 16 1.0 4.0 0.00 0.00 0.00 55 1017.7
20260509115505 66 354 1.0 4.0 0.00 0.00 0.00 51 1017.8
20260509115006 67 11 2.0 9.0 0.00 0.00 0.00 53 1017.8
20260509114505 70 22 2.0 9.0 0.00 0.00 0.00 53 1017.9
20260509114006 69 38 1.0 7.0 0.00 0.00 0.00 51 1017.9
20260509113005 69 53 1.0 7.0 0.00 0.00 0.00 51 1018.0
20260509112505 69 30 2.0 9.0 0.00 0.00 0.00 51 1018.1
20260509112005 69 24 2.0 9.0 0.00 0.00 0.00 54 1018.1
20260509111505 69 39 1.0 6.0 0.00 0.00 0.00 52 1018.1
20260509111005 68 25 2.0 6.0 0.00 0.00 0.00 52 1018.2
20260509110506 67 17 3.0 10.0 0.00 0.00 0.00 55 1018.2
20260509110005 66 23 4.0 10.0 0.00 0.00 0.00 58 1018.3
20260509105505 68 30 3.0 8.0 0.00 0.00 0.00 56 1018.3
20260509105005 68 33 2.0 8.0 0.00 0.00 0.00 58 1018.4
20260509104506 68 34 3.0 9.0 0.00 0.00 0.00 55 1018.3
20260509103005 67 33 2.0 8.0 0.00 0.00 0.00 60 1018.6
20260509102505 67 17 1.0 6.0 0.00 0.00 0.00 57 1018.6
20260509102005 67 38 2.0 7.0 0.00 0.00 0.00 61 1018.6
20260509101005 67 36 2.0 8.0 0.00 0.00 0.00 58 1018.7